StationID,Date,MaxTemp,MinTemp,Precipitation,Snowfall,SnowDepth
"SPE00156378","2008-01-01",45.50,30.20,0.00,,
"SPE00156378","2008-01-02",45.14,29.48,6.00,,
"SPE00156378","2008-01-03",42.80,30.92,190.00,,
"SPE00156378","2008-01-04",49.28,35.96,0.00,,
"SPE00156378","2008-01-05",49.28,40.10,0.00,,
"SPE00156378","2008-01-06",58.28,39.38,0.00,,
"SPE00156378","2008-01-07",50.18,43.34,0.00,,
"SPE00156378","2008-01-08",46.94,42.98,0.00,,
"SPE00156378","2008-01-09",50.90,42.44,0.00,,
"SPE00156378","2008-01-10",49.64,44.78,0.00,,
"SPE00156378","2008-01-11",53.06,36.86,22.00,,
"SPE00156378","2008-01-12",44.60,31.64,2.00,,
"SPE00156378","2008-01-13",47.84,32.54,0.00,,
"SPE00156378","2008-01-14",46.58,35.42,0.00,,
"SPE00156378","2008-01-15",42.26,34.34,0.00,,
"SPE00156378","2008-01-16",47.12,38.12,2.00,,
"SPE00156378","2008-01-17",49.82,34.34,0.00,,
"SPE00156378","2008-01-18",58.46,37.58,0.00,,
"SPE00156378","2008-01-19",54.14,40.46,0.00,,
"SPE00156378","2008-01-20",45.68,38.84,0.00,,
"SPE00156378","2008-01-21",58.82,39.20,0.00,,
"SPE00156378","2008-01-22",62.60,43.70,0.00,,
"SPE00156378","2008-01-23",58.10,41.18,0.00,,
"SPE00156378","2008-01-24",51.80,33.98,0.00,,
"SPE00156378","2008-01-25",52.34,38.48,0.00,,
"SPE00156378","2008-01-26",57.92,40.10,0.00,,
"SPE00156378","2008-01-27",59.90,40.10,0.00,,
"SPE00156378","2008-01-28",65.66,41.54,0.00,,
"SPE00156378","2008-01-29",58.10,41.18,0.00,,
"SPE00156378","2008-01-30",50.18,35.60,0.00,,
"SPE00156378","2008-01-31",49.46,33.08,0.00,,
"SPE00156378","2008-02-01",45.50,32.18,0.00,,
"SPE00156378","2008-02-02",47.66,33.80,0.00,,
"SPE00156378","2008-02-03",46.22,35.24,48.00,,
"SPE00156378","2008-02-04",50.18,36.68,76.00,,
"SPE00156378","2008-02-05",53.06,33.26,0.00,,
"SPE00156378","2008-02-06",58.28,36.50,0.00,,
"SPE00156378","2008-02-07",60.98,40.46,0.00,,
"SPE00156378","2008-02-08",59.18,40.46,0.00,,
"SPE00156378","2008-02-09",55.76,34.88,0.00,,
"SPE00156378","2008-02-10",54.86,33.98,0.00,,
"SPE00156378","2008-02-11",45.14,32.72,0.00,,
"SPE00156378","2008-02-12",44.06,33.26,0.00,,
"SPE00156378","2008-02-13",47.30,30.56,0.00,,
"SPE00156378","2008-02-14",48.38,34.52,2.00,,
"SPE00156378","2008-02-15",52.16,33.26,0.00,,
"SPE00156378","2008-02-16",53.24,34.16,0.00,,
"SPE00156378","2008-02-17",52.70,35.60,0.00,,
"SPE00156378","2008-02-18",43.88,35.60,24.00,,
"SPE00156378","2008-02-19",45.14,39.20,2.00,,
"SPE00156378","2008-02-20",47.66,42.44,0.00,,
"SPE00156378","2008-02-21",57.92,41.72,0.00,,
"SPE00156378","2008-02-22",62.24,41.00,0.00,,
"SPE00156378","2008-02-23",61.16,43.16,0.00,,
"SPE00156378","2008-02-24",57.92,43.34,10.00,,
"SPE00156378","2008-02-25",51.62,43.34,40.00,,
"SPE00156378","2008-02-26",60.62,46.76,0.00,,
"SPE00156378","2008-02-27",58.28,43.16,0.00,,
"SPE00156378","2008-02-28",59.90,46.04,0.00,,
"SPE00156378","2008-02-29",62.24,44.78,0.00,,
"SPE00156378","2008-03-01",58.64,44.96,0.00,,
"SPE00156378","2008-03-02",67.82,42.62,0.00,,
"SPE00156378","2008-03-03",63.68,46.22,0.00,,
"SPE00156378","2008-03-04",50.72,32.36,0.00,,
"SPE00156378","2008-03-05",41.54,27.50,0.00,,
"SPE00156378","2008-03-06",52.52,28.04,0.00,,
"SPE00156378","2008-03-07",54.50,31.64,0.00,,
"SPE00156378","2008-03-08",57.20,32.72,0.00,,
"SPE00156378","2008-03-09",52.34,38.84,0.00,,
"SPE00156378","2008-03-10",45.14,34.16,0.00,,
"SPE00156378","2008-03-11",63.86,37.58,0.00,,
"SPE00156378","2008-03-12",59.90,46.58,0.00,,
"SPE00156378","2008-03-13",62.60,45.50,0.00,,
"SPE00156378","2008-03-14",70.52,45.14,0.00,,
"SPE00156378","2008-03-15",68.72,50.00,0.00,,
"SPE00156378","2008-03-16",59.90,43.16,0.00,,
"SPE00156378","2008-03-17",59.72,40.10,0.00,,
"SPE00156378","2008-03-18",54.68,39.56,0.00,,
"SPE00156378","2008-03-19",48.56,39.74,0.00,,
"SPE00156378","2008-03-20",52.34,33.26,0.00,,
"SPE00156378","2008-03-21",49.28,30.02,0.00,,
"SPE00156378","2008-03-22",51.80,31.46,150.00,,
"SPE00156378","2008-03-23",47.30,29.66,6.00,,
"SPE00156378","2008-03-24",54.50,29.66,0.00,,
"SPE00156378","2008-03-25",62.60,37.04,0.00,,
"SPE00156378","2008-03-26",53.96,37.58,2.00,,
"SPE00156378","2008-03-27",49.64,33.98,0.00,,
"SPE00156378","2008-03-28",57.38,37.58,0.00,,
"SPE00156378","2008-03-29",62.06,41.18,0.00,,
"SPE00156378","2008-03-30",59.00,38.12,114.00,,
"SPE00156378","2008-03-31",55.76,35.78,28.00,,
"SPE00156378","2008-04-01",65.66,41.90,0.00,,
"SPE00156378","2008-04-02",69.44,46.04,0.00,,
"SPE00156378","2008-04-03",68.00,47.84,0.00,,
"SPE00156378","2008-04-04",59.72,41.72,0.00,,
"SPE00156378","2008-04-05",65.84,41.72,0.00,,
"SPE00156378","2008-04-06",68.00,43.70,0.00,,
"SPE00156378","2008-04-07",45.50,40.64,0.00,,
"SPE00156378","2008-04-08",58.64,41.54,0.00,,
"SPE00156378","2008-04-09",61.88,50.54,12.00,,
"SPE00156378","2008-04-10",67.28,48.02,40.00,,
"SPE00156378","2008-04-11",52.70,37.58,250.00,,
"SPE00156378","2008-04-12",55.94,38.12,10.00,,
"SPE00156378","2008-04-13",57.56,38.84,2.00,,
"SPE00156378","2008-04-14",56.48,39.38,0.00,,
"SPE00156378","2008-04-15",59.36,35.60,0.00,,
"SPE00156378","2008-04-16",61.88,40.28,0.00,,
"SPE00156378","2008-04-17",54.68,41.00,78.00,,
"SPE00156378","2008-04-18",51.62,42.44,68.00,,
"SPE00156378","2008-04-19",59.18,42.44,0.00,,
"SPE00156378","2008-04-20",54.14,42.44,110.00,,
"SPE00156378","2008-04-21",57.56,41.36,,,
"SPE00156378","2008-04-22",60.80,39.74,0.00,,
"SPE00156378","2008-04-23",68.00,40.82,62.00,,
"SPE00156378","2008-04-24",68.90,44.96,0.00,,
"SPE00156378","2008-04-25",72.68,48.74,0.00,,
"SPE00156378","2008-04-26",74.12,52.70,0.00,,
"SPE00156378","2008-04-27",68.72,49.82,0.00,,
"SPE00156378","2008-04-28",60.98,49.46,32.00,,
"SPE00156378","2008-04-29",60.62,41.18,0.00,,
"SPE00156378","2008-04-30",62.24,43.34,0.00,,
"SPE00156378","2008-05-01",63.68,41.54,0.00,,
"SPE00156378","2008-05-02",70.52,48.56,0.00,,
"SPE00156378","2008-05-03",74.12,50.90,0.00,,
"SPE00156378","2008-05-04",78.26,54.86,0.00,,
"SPE00156378","2008-05-05",73.40,51.80,42.00,,
"SPE00156378","2008-05-06",66.74,50.18,0.00,,
"SPE00156378","2008-05-07",68.90,49.46,0.00,,
"SPE00156378","2008-05-08",66.92,48.02,0.00,,
"SPE00156378","2008-05-09",51.98,45.32,232.00,,
"SPE00156378","2008-05-10",52.16,45.86,306.00,,
"SPE00156378","2008-05-11",54.32,46.22,140.00,,
"SPE00156378","2008-05-12",57.56,47.66,0.00,,
"SPE00156378","2008-05-13",67.10,46.58,14.00,,
"SPE00156378","2008-05-14",61.70,48.38,6.00,,
"SPE00156378","2008-05-15",66.20,49.82,8.00,,
"SPE00156378","2008-05-16",61.34,49.10,190.00,,
"SPE00156378","2008-05-17",63.86,49.28,120.00,,
"SPE00156378","2008-05-18",66.74,47.12,0.00,,
"SPE00156378","2008-05-19",62.78,46.40,12.00,,
"SPE00156378","2008-05-20",68.36,46.22,0.00,,
"SPE00156378","2008-05-21",69.80,50.18,0.00,,
"SPE00156378","2008-05-22",63.50,51.08,72.00,,
"SPE00156378","2008-05-23",69.26,47.30,0.00,,
"SPE00156378","2008-05-24",66.38,52.16,140.00,,
"SPE00156378","2008-05-25",55.58,48.02,316.00,,
"SPE00156378","2008-05-26",65.48,48.02,4.00,,
"SPE00156378","2008-05-27",59.18,48.74,156.00,,
"SPE00156378","2008-05-28",63.50,47.12,0.00,,
"SPE00156378","2008-05-29",68.90,47.12,0.00,,
"SPE00156378","2008-05-30",70.34,53.42,24.00,,
"SPE00156378","2008-05-31",65.66,52.70,8.00,,
"SPE00156378","2008-06-01",64.40,51.80,14.00,,
"SPE00156378","2008-06-02",65.48,49.46,28.00,,
"SPE00156378","2008-06-03",64.76,50.18,184.00,,
"SPE00156378","2008-06-04",69.80,46.04,24.00,,
"SPE00156378","2008-06-05",68.90,50.18,140.00,,
"SPE00156378","2008-06-06",68.36,50.72,66.00,,
"SPE00156378","2008-06-07",64.76,48.02,120.00,,
"SPE00156378","2008-06-08",67.46,46.40,2.00,,
"SPE00156378","2008-06-09",67.82,49.64,0.00,,
"SPE00156378","2008-06-10",66.56,52.88,100.00,,
"SPE00156378","2008-06-11",69.26,51.44,52.00,,
"SPE00156378","2008-06-12",75.74,50.72,4.00,,
"SPE00156378","2008-06-13",67.46,49.64,164.00,,
"SPE00156378","2008-06-14",66.20,52.16,2.00,,
"SPE00156378","2008-06-15",69.62,51.98,0.00,,
"SPE00156378","2008-06-16",71.96,53.06,74.00,,
"SPE00156378","2008-06-17",67.46,53.96,64.00,,
"SPE00156378","2008-06-18",75.02,52.88,2.00,,
"SPE00156378","2008-06-19",81.14,57.02,0.00,,
"SPE00156378","2008-06-20",83.12,62.24,0.00,,
"SPE00156378","2008-06-21",87.44,65.48,0.00,,
"SPE00156378","2008-06-22",85.10,64.58,0.00,,
"SPE00156378","2008-06-23",84.56,63.32,0.00,,
"SPE00156378","2008-06-24",75.92,63.50,0.00,,
"SPE00156378","2008-06-25",81.86,61.16,0.00,,
"SPE00156378","2008-06-26",85.46,59.72,30.00,,
"SPE00156378","2008-06-27",79.16,57.74,148.00,,
"SPE00156378","2008-06-28",84.20,61.88,0.00,,
"SPE00156378","2008-06-29",84.92,63.50,0.00,,
"SPE00156378","2008-06-30",83.30,64.04,0.00,,
"SPE00156378","2008-07-01",85.64,62.78,0.00,,
"SPE00156378","2008-07-02",80.42,62.42,0.00,,
"SPE00156378","2008-07-03",77.36,59.00,2.00,,
"SPE00156378","2008-07-04",80.24,55.76,0.00,,
"SPE00156378","2008-07-05",86.90,61.88,0.00,,
"SPE00156378","2008-07-06",83.48,60.98,4.00,,
"SPE00156378","2008-07-07",73.04,56.66,2.00,,
"SPE00156378","2008-07-08",73.76,58.10,0.00,,
"SPE00156378","2008-07-09",81.14,59.36,0.00,,
"SPE00156378","2008-07-10",85.28,63.50,0.00,,
"SPE00156378","2008-07-11",84.92,57.74,196.00,,
"SPE00156378","2008-07-12",78.26,55.94,264.00,,
"SPE00156378","2008-07-13",70.70,53.06,0.00,,
"SPE00156378","2008-07-14",75.02,52.34,0.00,,
"SPE00156378","2008-07-15",76.46,57.74,0.00,,
"SPE00156378","2008-07-16",80.06,58.82,0.00,,
"SPE00156378","2008-07-17",76.46,60.44,0.00,,
"SPE00156378","2008-07-18",80.96,59.72,0.00,,
"SPE00156378","2008-07-19",87.26,61.52,0.00,,
"SPE00156378","2008-07-20",86.72,65.66,0.00,,
"SPE00156378","2008-07-21",79.34,62.24,0.00,,
"SPE00156378","2008-07-22",79.52,56.84,0.00,,
"SPE00156378","2008-07-23",82.58,59.90,0.00,,
"SPE00156378","2008-07-24",85.82,62.06,0.00,,
"SPE00156378","2008-07-25",84.92,62.96,0.00,,
"SPE00156378","2008-07-26",84.56,64.22,0.00,,
"SPE00156378","2008-07-27",83.84,62.78,0.00,,
"SPE00156378","2008-07-28",84.02,64.40,0.00,,
"SPE00156378","2008-07-29",85.64,62.78,0.00,,
"SPE00156378","2008-07-30",87.80,67.10,0.00,,
"SPE00156378","2008-07-31",88.16,68.54,0.00,,
"SPE00156378","2008-08-01",85.64,65.12,0.00,,
"SPE00156378","2008-08-02",86.72,63.50,0.00,,
"SPE00156378","2008-08-03",88.70,63.14,0.00,,
"SPE00156378","2008-08-04",91.22,68.18,0.00,,
"SPE00156378","2008-08-05",91.58,66.38,0.00,,
"SPE00156378","2008-08-06",91.58,70.52,0.00,,
"SPE00156378","2008-08-07",89.42,66.38,4.00,,
"SPE00156378","2008-08-08",80.78,59.54,0.00,,
"SPE00156378","2008-08-09",83.30,57.56,0.00,,
"SPE00156378","2008-08-10",88.52,60.08,0.00,,
"SPE00156378","2008-08-11",80.96,64.58,0.00,,
"SPE00156378","2008-08-12",86.36,63.86,0.00,,
"SPE00156378","2008-08-13",78.08,60.44,0.00,,
"SPE00156378","2008-08-14",73.94,57.74,94.00,,
"SPE00156378","2008-08-15",73.58,53.24,2.00,,
"SPE00156378","2008-08-16",74.84,54.68,0.00,,
"SPE00156378","2008-08-17",78.26,56.30,2.00,,
"SPE00156378","2008-08-18",82.22,60.26,0.00,,
"SPE00156378","2008-08-19",84.56,61.52,0.00,,
"SPE00156378","2008-08-20",75.56,60.08,0.00,,
"SPE00156378","2008-08-21",83.48,59.72,0.00,,
"SPE00156378","2008-08-22",80.42,57.38,130.00,,
"SPE00156378","2008-08-23",74.84,56.12,0.00,,
"SPE00156378","2008-08-24",79.34,59.54,0.00,,
"SPE00156378","2008-08-25",77.90,61.34,108.00,,
"SPE00156378","2008-08-26",77.54,60.80,0.00,,
"SPE00156378","2008-08-27",79.52,61.70,0.00,,
"SPE00156378","2008-08-28",80.60,61.70,0.00,,
"SPE00156378","2008-08-29",83.66,63.68,0.00,,
"SPE00156378","2008-08-30",86.90,64.40,0.00,,
"SPE00156378","2008-08-31",77.18,60.98,274.00,,
"SPE00156378","2008-09-01",78.26,58.82,10.00,,
"SPE00156378","2008-09-02",79.88,60.62,0.00,,
"SPE00156378","2008-09-03",78.08,62.06,0.00,,
"SPE00156378","2008-09-04",80.42,60.44,0.00,,
"SPE00156378","2008-09-05",79.52,61.88,0.00,,
"SPE00156378","2008-09-06",68.36,55.58,26.00,,
"SPE00156378","2008-09-07",72.14,53.78,0.00,,
"SPE00156378","2008-09-08",77.72,53.96,0.00,,
"SPE00156378","2008-09-09",75.74,59.36,0.00,,
"SPE00156378","2008-09-10",81.32,62.78,0.00,,
"SPE00156378","2008-09-11",80.96,59.00,164.00,,
"SPE00156378","2008-09-12",66.92,51.44,0.00,,
"SPE00156378","2008-09-13",67.46,47.48,26.00,,
"SPE00156378","2008-09-14",71.96,50.00,0.00,,
"SPE00156378","2008-09-15",73.22,49.64,0.00,,
"SPE00156378","2008-09-16",68.90,54.32,0.00,,
"SPE00156378","2008-09-17",72.86,55.94,0.00,,
"SPE00156378","2008-09-18",71.96,58.64,34.00,,
"SPE00156378","2008-09-19",75.92,56.66,148.00,,
"SPE00156378","2008-09-20",71.60,56.66,2.00,,
"SPE00156378","2008-09-21",71.60,55.94,0.00,,
"SPE00156378","2008-09-22",65.84,55.58,0.00,,
"SPE00156378","2008-09-23",55.58,49.64,16.00,,
"SPE00156378","2008-09-24",58.82,49.64,0.00,,
"SPE00156378","2008-09-25",65.30,50.54,0.00,,
"SPE00156378","2008-09-26",63.68,49.28,126.00,,
"SPE00156378","2008-09-27",65.12,47.12,2.00,,
"SPE00156378","2008-09-28",66.92,46.22,0.00,,
"SPE00156378","2008-09-29",69.44,48.74,0.00,,
"SPE00156378","2008-09-30",66.02,50.00,0.00,,
"SPE00156378","2008-10-01",66.20,48.02,0.00,,
"SPE00156378","2008-10-02",65.84,48.74,0.00,,
"SPE00156378","2008-10-03",62.06,43.34,0.00,,
"SPE00156378","2008-10-04",60.44,40.10,0.00,,
"SPE00156378","2008-10-05",65.48,43.34,0.00,,
"SPE00156378","2008-10-06",73.40,48.92,0.00,,
"SPE00156378","2008-10-07",69.98,48.02,0.00,,
"SPE00156378","2008-10-08",56.30,47.48,18.00,,
"SPE00156378","2008-10-09",59.00,45.68,0.00,,
"SPE00156378","2008-10-10",70.88,53.24,0.00,,
"SPE00156378","2008-10-11",68.72,50.54,0.00,,
"SPE00156378","2008-10-12",70.16,55.22,0.00,,
"SPE00156378","2008-10-13",73.04,58.82,0.00,,
"SPE00156378","2008-10-14",72.32,57.74,0.00,,
"SPE00156378","2008-10-15",73.76,55.22,0.00,,
"SPE00156378","2008-10-16",73.04,56.12,110.00,,
"SPE00156378","2008-10-17",66.56,55.76,0.00,,
"SPE00156378","2008-10-18",56.30,51.98,58.00,,
"SPE00156378","2008-10-19",65.12,50.90,0.00,,
"SPE00156378","2008-10-20",69.98,53.96,0.00,,
"SPE00156378","2008-10-21",71.60,53.06,0.00,,
"SPE00156378","2008-10-22",61.52,46.58,0.00,,
"SPE00156378","2008-10-23",58.10,45.50,50.00,,
"SPE00156378","2008-10-24",62.06,47.30,0.00,,
"SPE00156378","2008-10-25",68.18,51.62,0.00,,
"SPE00156378","2008-10-26",67.10,50.00,0.00,,
"SPE00156378","2008-10-27",65.48,50.54,0.00,,
"SPE00156378","2008-10-28",51.26,41.36,152.00,,
"SPE00156378","2008-10-29",41.36,32.36,194.00,,
"SPE00156378","2008-10-30",46.76,31.46,0.00,,
"SPE00156378","2008-10-31",52.16,44.24,128.00,,
"SPE00156378","2008-11-01",57.92,48.56,136.00,,
"SPE00156378","2008-11-02",53.42,37.76,374.00,,
"SPE00156378","2008-11-03",51.08,35.96,0.00,,
"SPE00156378","2008-11-04",51.44,38.48,0.00,,
"SPE00156378","2008-11-05",50.54,38.30,0.00,,
"SPE00156378","2008-11-06",54.50,43.34,0.00,,
"SPE00156378","2008-11-07",55.76,41.00,0.00,,
"SPE00156378","2008-11-08",55.76,42.98,0.00,,
"SPE00156378","2008-11-09",58.46,39.92,0.00,,
"SPE00156378","2008-11-10",57.56,44.78,0.00,,
"SPE00156378","2008-11-11",53.06,46.76,0.00,,
"SPE00156378","2008-11-12",46.94,42.26,30.00,,
"SPE00156378","2008-11-13",52.52,36.86,0.00,,
"SPE00156378","2008-11-14",55.40,33.98,0.00,,
"SPE00156378","2008-11-15",59.00,39.20,0.00,,
"SPE00156378","2008-11-16",58.46,38.66,0.00,,
"SPE00156378","2008-11-17",54.14,37.94,0.00,,
"SPE00156378","2008-11-18",45.68,36.50,0.00,,
"SPE00156378","2008-11-19",52.52,38.30,0.00,,
"SPE00156378","2008-11-20",49.10,38.48,0.00,,
"SPE00156378","2008-11-21",48.20,34.70,0.00,,
"SPE00156378","2008-11-22",56.48,42.98,0.00,,
"SPE00156378","2008-11-23",50.54,37.40,0.00,,
"SPE00156378","2008-11-24",47.66,33.44,2.00,,
"SPE00156378","2008-11-25",46.76,31.10,0.00,,
"SPE00156378","2008-11-26",44.24,27.14,0.00,,
"SPE00156378","2008-11-27",41.90,28.04,0.00,,
"SPE00156378","2008-11-28",37.94,30.92,8.00,,
"SPE00156378","2008-11-29",43.70,32.18,14.00,,
"SPE00156378","2008-11-30",42.08,33.80,0.00,,
"SPE00156378","2008-12-01",41.18,32.54,0.00,,
"SPE00156378","2008-12-02",44.60,30.74,0.00,,
"SPE00156378","2008-12-03",40.10,30.38,0.00,,
"SPE00156378","2008-12-04",43.52,32.36,0.00,,
"SPE00156378","2008-12-05",51.62,39.20,0.00,,
"SPE00156378","2008-12-06",49.10,33.98,0.00,,
"SPE00156378","2008-12-07",48.02,37.40,0.00,,
"SPE00156378","2008-12-08",44.06,39.20,3.00,,
"SPE00156378","2008-12-09",46.04,40.10,66.00,,
"SPE00156378","2008-12-10",41.54,30.02,13.00,,
"SPE00156378","2008-12-11",42.08,27.14,0.00,,
"SPE00156378","2008-12-12",47.30,30.02,0.00,,
"SPE00156378","2008-12-13",39.56,33.44,86.00,,
"SPE00156378","2008-12-14",36.50,30.74,27.00,,
"SPE00156378","2008-12-15",39.56,30.56,3.00,,
"SPE00156378","2008-12-16",42.98,37.04,3.00,,
"SPE00156378","2008-12-17",45.86,32.36,0.00,,
"SPE00156378","2008-12-18",48.38,36.14,0.00,,
"SPE00156378","2008-12-19",46.58,35.78,0.00,,
"SPE00156378","2008-12-20",53.06,35.06,0.00,,
"SPE00156378","2008-12-21",57.02,38.12,0.00,,
"SPE00156378","2008-12-22",62.78,43.34,0.00,,
"SPE00156378","2008-12-23",57.38,41.90,0.00,,
"SPE00156378","2008-12-24",58.28,37.22,0.00,,
"SPE00156378","2008-12-25",50.54,33.26,0.00,,
"SPE00156378","2008-12-26",36.14,30.92,36.00,,
"SPE00156378","2008-12-27",39.92,31.64,329.00,,
"SPE00156378","2008-12-28",38.48,33.62,19.00,,
"SPE00156378","2008-12-29",37.04,32.90,51.00,,
"SPE00156378","2008-12-30",48.56,36.50,9.00,,
"SPE00156378","2008-12-31",50.72,43.88,2.00,,
"SPE00156378","2009-01-01",49.28,40.82,0.00,,
"SPE00156378","2009-01-02",46.94,38.84,0.00,,
"SPE00156378","2009-01-03",43.16,35.78,0.00,,
"SPE00156378","2009-01-04",44.42,31.64,0.00,,
"SPE00156378","2009-01-05",37.76,28.94,0.00,,
"SPE00156378","2009-01-06",33.98,27.68,172.00,,
"SPE00156378","2009-01-07",32.90,23.18,0.00,,
"SPE00156378","2009-01-08",33.44,19.40,0.00,,
"SPE00156378","2009-01-09",35.96,29.12,48.00,,
"SPE00156378","2009-01-10",39.38,33.62,199.00,,
"SPE00156378","2009-01-11",49.28,35.06,0.00,,
"SPE00156378","2009-01-12",50.54,35.24,0.00,,
"SPE00156378","2009-01-13",48.38,32.18,0.00,,
"SPE00156378","2009-01-14",49.64,33.26,0.00,,
"SPE00156378","2009-01-15",47.84,29.84,0.00,,
"SPE00156378","2009-01-16",47.84,32.90,0.00,,
"SPE00156378","2009-01-17",48.74,35.96,0.00,,
"SPE00156378","2009-01-18",48.20,34.16,0.00,,
"SPE00156378","2009-01-19",51.80,39.02,29.00,,
"SPE00156378","2009-01-20",45.32,32.00,0.00,,
"SPE00156378","2009-01-21",42.26,26.96,0.00,,
"SPE00156378","2009-01-22",42.44,30.38,6.00,,
"SPE00156378","2009-01-23",55.76,36.86,1.00,,
"SPE00156378","2009-01-24",51.08,36.32,5.00,,
"SPE00156378","2009-01-25",46.22,32.54,0.00,,
"SPE00156378","2009-01-26",46.40,32.00,8.00,,
"SPE00156378","2009-01-27",47.84,30.02,0.00,,
"SPE00156378","2009-01-28",49.28,30.02,0.00,,
"SPE00156378","2009-01-29",53.06,38.12,0.00,,
"SPE00156378","2009-01-30",52.34,37.22,0.00,,
"SPE00156378","2009-01-31",45.50,40.64,235.00,,
"SPE00156378","2009-02-01",45.50,33.80,85.00,,
"SPE00156378","2009-02-02",45.14,32.90,50.00,,
"SPE00156378","2009-02-03",41.54,36.50,85.00,,
"SPE00156378","2009-02-04",48.74,37.94,0.00,,
"SPE00156378","2009-02-05",47.48,38.66,0.00,,
"SPE00156378","2009-02-06",46.58,35.24,7.00,,
"SPE00156378","2009-02-07",45.32,29.84,0.00,,
"SPE00156378","2009-02-08",45.32,29.48,0.00,,
"SPE00156378","2009-02-09",50.90,29.84,0.00,,
"SPE00156378","2009-02-10",52.70,36.32,2.00,,
"SPE00156378","2009-02-11",39.92,30.74,9.00,,
"SPE00156378","2009-02-12",50.54,30.74,0.00,,
"SPE00156378","2009-02-13",47.84,30.38,0.00,,
"SPE00156378","2009-02-14",50.18,31.28,0.00,,
"SPE00156378","2009-02-15",40.82,34.52,0.00,,
"SPE00156378","2009-02-16",46.76,33.80,0.00,,
"SPE00156378","2009-02-17",51.98,34.70,0.00,,
"SPE00156378","2009-02-18",55.94,36.86,0.00,,
"SPE00156378","2009-02-19",53.24,36.32,0.00,,
"SPE00156378","2009-02-20",49.10,37.04,0.00,,
"SPE00156378","2009-02-21",52.70,34.70,0.00,,
"SPE00156378","2009-02-22",51.26,33.62,0.00,,
"SPE00156378","2009-02-23",51.44,35.78,0.00,,
"SPE00156378","2009-02-24",54.86,34.70,0.00,,
"SPE00156378","2009-02-25",53.42,37.76,0.00,,
"SPE00156378","2009-02-26",59.36,37.40,0.00,,
"SPE00156378","2009-02-27",66.02,41.72,0.00,,
"SPE00156378","2009-02-28",57.56,42.80,0.00,,
"SPE00156378","2009-03-01",44.42,40.64,27.00,,
"SPE00156378","2009-03-02",51.44,40.46,20.00,,
"SPE00156378","2009-03-03",45.50,39.20,25.00,,
"SPE00156378","2009-03-04",42.62,31.82,51.00,,
"SPE00156378","2009-03-05",44.78,27.86,0.00,,
"SPE00156378","2009-03-06",48.56,31.28,0.00,,
"SPE00156378","2009-03-07",62.24,36.50,0.00,,
"SPE00156378","2009-03-08",58.64,39.92,0.00,,
"SPE00156378","2009-03-09",53.60,41.72,0.00,,
"SPE00156378","2009-03-10",56.12,42.08,0.00,,
"SPE00156378","2009-03-11",52.52,41.90,0.00,,
"SPE00156378","2009-03-12",60.80,40.10,0.00,,
"SPE00156378","2009-03-13",68.36,45.68,0.00,,
"SPE00156378","2009-03-14",67.64,50.36,0.00,,
"SPE00156378","2009-03-15",65.30,49.10,0.00,,
"SPE00156378","2009-03-16",58.82,43.52,0.00,,
"SPE00156378","2009-03-17",62.78,39.74,0.00,,
"SPE00156378","2009-03-18",64.40,41.36,0.00,,
"SPE00156378","2009-03-19",67.46,43.16,0.00,,
"SPE00156378","2009-03-20",64.40,35.78,0.00,,
"SPE00156378","2009-03-21",54.50,34.88,0.00,,
"SPE00156378","2009-03-22",59.36,36.14,0.00,,
"SPE00156378","2009-03-23",64.58,40.82,0.00,,
"SPE00156378","2009-03-24",60.80,41.18,0.00,,
"SPE00156378","2009-03-25",55.94,33.62,0.00,,
"SPE00156378","2009-03-26",60.62,38.12,0.00,,
"SPE00156378","2009-03-27",66.74,42.26,0.00,,
"SPE00156378","2009-03-28",49.10,38.66,227.00,,
"SPE00156378","2009-03-29",51.08,37.40,68.00,,
"SPE00156378","2009-03-30",50.36,37.94,105.00,,
"SPE00156378","2009-03-31",43.70,37.94,180.00,,
"SPE00156378","2009-04-01",52.70,38.84,8.00,,
"SPE00156378","2009-04-02",45.68,39.74,68.00,,
"SPE00156378","2009-04-03",55.76,35.96,0.00,,
"SPE00156378","2009-04-04",59.90,41.00,0.00,,
"SPE00156378","2009-04-05",60.44,44.24,0.00,,
"SPE00156378","2009-04-06",63.50,46.22,0.00,,
"SPE00156378","2009-04-07",50.36,39.92,215.00,,
"SPE00156378","2009-04-08",53.06,39.74,13.00,,
"SPE00156378","2009-04-09",61.88,41.54,0.00,,
"SPE00156378","2009-04-10",47.84,42.62,30.00,,
"SPE00156378","2009-04-11",51.80,38.12,104.00,,
"SPE00156378","2009-04-12",45.14,37.58,50.00,,
"SPE00156378","2009-04-13",59.18,41.00,0.00,,
"SPE00156378","2009-04-14",63.50,44.96,0.00,,
"SPE00156378","2009-04-15",53.96,40.46,68.00,,
"SPE00156378","2009-04-16",55.76,39.38,5.00,,
"SPE00156378","2009-04-17",55.94,40.64,0.00,,
"SPE00156378","2009-04-18",57.56,38.66,6.00,,
"SPE00156378","2009-04-19",59.90,39.74,24.00,,
"SPE00156378","2009-04-20",58.82,39.56,19.00,,
"SPE00156378","2009-04-21",64.94,43.52,0.00,,
"SPE00156378","2009-04-22",69.26,52.34,0.00,,
"SPE00156378","2009-04-23",73.58,50.00,0.00,,
"SPE00156378","2009-04-24",70.52,46.94,0.00,,
"SPE00156378","2009-04-25",60.62,44.78,0.00,,
"SPE00156378","2009-04-26",58.46,41.72,31.00,,
"SPE00156378","2009-04-27",58.46,41.54,0.00,,
"SPE00156378","2009-04-28",58.64,41.72,0.00,,
"SPE00156378","2009-04-29",61.70,40.28,0.00,,
"SPE00156378","2009-04-30",64.76,43.52,104.00,,
"SPE00156378","2009-05-01",64.04,44.06,44.00,,
"SPE00156378","2009-05-02",68.54,45.14,0.00,,
"SPE00156378","2009-05-03",69.62,48.92,0.00,,
"SPE00156378","2009-05-04",70.16,51.08,2.00,,
"SPE00156378","2009-05-05",69.26,45.32,0.00,,
"SPE00156378","2009-05-06",75.20,51.80,0.00,,
"SPE00156378","2009-05-07",78.08,54.86,0.00,,
"SPE00156378","2009-05-08",73.58,54.50,0.00,,
"SPE00156378","2009-05-09",71.78,51.98,0.00,,
"SPE00156378","2009-05-10",74.12,53.78,1.00,,
"SPE00156378","2009-05-11",73.04,52.88,3.00,,
"SPE00156378","2009-05-12",78.44,56.84,0.00,,
"SPE00156378","2009-05-13",71.42,55.22,6.00,,
"SPE00156378","2009-05-14",63.14,48.38,132.00,,
"SPE00156378","2009-05-15",63.50,43.16,0.00,,
"SPE00156378","2009-05-16",71.60,45.32,0.00,,
"SPE00156378","2009-05-17",72.14,53.60,0.00,,
"SPE00156378","2009-05-18",71.96,50.90,0.00,,
"SPE00156378","2009-05-19",76.10,51.98,0.00,,
"SPE00156378","2009-05-20",78.08,55.58,0.00,,